SCP
0 0 -0 0 0 0 0 0 0 0 0 0 0 0 0 -0 -0 -0 -0 -0 -0 -1 -0 0 0 0 -0 -0 0 0 0 0
0 0 0 0 0 0 0 0 0 0 0 0 0 0 0 0 -0 -0 -0 -0 -0 -1 -0 -1 -1 -1 -0 -0 -0 0 0 0
0 0 0 0 0 0 0 0 0 0 0 0 0 0 -0 -0 -0 -0 -0 -0 -0 -0 -0 -1 -2 -1 0 0 1 0 0 0
0 0 0 0 0 0 0 0 0 0 0 0 0 0 0 0 0 0 0 -0 -0 -0 -0 -0 -1 -1 -1 0 1 1 0 0
0 0 0 0 0 0 0 0 0 0 0 0 0 0 0 0 0 0 0 0 -0 -0 -0 -0 -1 -0 -0 1 0 1 0 0
0 0 0 0 0 0 0 0 0 0 0 0 0 0 0 0 0 0 -0 -0 -0 -0 -0 -0 -0 0 0 1 2 2 1 0
0 0 0 0 0 0 0 0 0 0 0 0 0 0 0 0 0 0 0 0 -0 0 0 0 0 0 1 2 3 3 2 1
0 0 0 0 0 0 0 0 0 0 0 0 0 0 0 0 0 0 0 0 0 0 0 0 0 1 1 3 3 3 2 1
0 0 0 0 0 0 0 0 0 0 0 0 0 0 0 0 0 0 0 0 0 0 0 0 0 1 1 2 3 2 2 3
0 0 0 0 0 0 0 0 0 0 0 0 0 0 0 0 0 0 0 0 0 0 0 0 1 1 1 3 3 3 3 2
0 0 0 0 0 0 0 0 0 0 0 0 0 0 0 0 0 0 0 0 0 0 0 0 1 2 2 2 3 2 2 1
0 0 0 0 0 0 0 0 0 0 0 0 0 0 0 0 0 0 0 0 0 0 0 0 0 2 2 2 2 1 1 1
0 0 0 0 0 0 0 0 0 0 0 0 0 0 0 0 0 0 0 0 0 0 0 0 1 1 1 1 1 1 1 1
0 0 0 0 0 0 0 0 0 0 0 0 0 0 0 0 0 0 0 0 0 0 1 1 1 1 1 1 1 1 1 0
0 0 0 0 0 0 0 0 0 0 0 0 0 0 0 0 0 1 1 1 0 0 -0 1 1 1 0 0 1 1 0 0
0 0 0 0 0 0 0 0 0 0 0 0 0 2 1 2 1 1 0 0 0 1 1 1 1 1 0 0 0 0 0 0
0 0 0 0 0 0 0 0 0 0 0 0 0 0 1 0 0 -0 -0 -0 0 0 0 0 0 0 0 0 0 0 0 0
0 0 0 0 0 0 0 0 0 0 0 0 0 0 0 0 1 0 0 0 0 0 0 0 0 0 0 0 0 0 0 0
0 0 0 0 0 0 0 0 0 0 0 0 0 0 0 0 0 0 0 0 0 0 0 0 0 0 0 0 0 0 0 0
Wind_Speed_500mb
13 13 21 11 9 18 12 2 7 8 12 15 14 22 42 57 59 72 85 92 100 102 99 96 87 86 83 84 80 77 69 60
16 12 12 25 14 4 3 12 11 8 8 11 15 16 22 26 52 74 79 83 87 96 102 102 98 89 86 87 87 83 77 69
11 15 20 4 5 7 9 8 14 9 13 16 16 19 34 41 77 67 78 85 93 100 101 108 107 100 92 93 92 88 84 77
24 11 7 15 22 20 15 11 2 9 14 11 18 17 32 39 54 74 82 84 91 97 102 109 115 110 104 101 98 96 89 83
14 8 2 10 13 11 8 8 16 14 12 2 7 12 40 43 56 72 82 80 90 94 100 106 114 117 114 110 105 101 95 86
28 18 11 11 12 14 16 11 12 13 11 7 13 17 20 45 64 80 85 86 90 91 99 104 109 114 113 113 110 106 100 93
41 30 13 12 11 15 15 18 18 16 20 19 24 26 39 68 65 70 75 79 86 96 100 105 104 103 104 107 112 112 107 99
15 24 27 21 29 25 28 13 8 15 14 17 40 15 17 56 64 69 69 74 76 75 81 87 96 100 100 98 105 112 113 106
33 11 14 10 17 32 13 1 14 12 21 13 9 16 39 62 75 81 77 72 68 66 66 68 75 84 90 91 94 103 107 108
25 11 14 10 8 26 21 9 5 7 10 14 23 76 78 73 90 82 68 55 47 41 34 38 47 67 77 82 90 94 99 100
11 11 5 7 7 7 16 9 6 2 10 4 13 24 3 50 57 58 52 43 33 22 12 18 29 37 55 72 80 86 92 94
6 15 11 5 12 33 21 3 13 11 11 8 7 15 5 23 39 39 32 30 25 11 17 20 24 30 50 67 77 81 86 82
6 9 5 9 28 22 15 10 19 24 29 46 17 14 36 16 22 22 24 24 14 12 17 21 23 26 45 56 62 68 73 70
4 8 5 39 10 11 7 20 24 48 52 57 49 50 48 44 34 24 18 18 19 25 33 35 35 39 47 49 47 52 57 62
4 7 8 19 36 43 47 61 61 72 60 60 62 55 47 44 40 35 28 23 24 40 52 57 57 54 48 44 40 41 50 56
7 9 13 27 49 54 55 58 51 46 42 41 40 37 40 35 41 40 37 39 45 52 60 54 58 51 44 35 32 37 41 51
12 7 11 48 48 52 51 44 38 34 32 32 20 15 24 35 56 62 50 47 40 39 45 36 42 40 34 38 41 30 22 17
10 20 43 18 39 44 57 47 45 34 40 44 40 42 19 11 19 24 17 24 30 23 23 28 36 38 38 31 35 33 42 46
24 63 63 55 53 59 58 50 43 41 34 31 35 28 28 29 33 22 26 15 21 21 13 36 35 21 23 28 29 47 37 38
Wind_Direction_500mb
212 189 165 208 161 197 140 357 92 216 275 328 321 220 201 202 197 205 205 209 211 212 214 210 211 211 210 212 216 217 218 219
235 177 231 203 167 102 1 168 232 238 235 217 219 205 203 194 200 207 205 206 209 213 217 217 218 218 217 218 219 219 220 222
158 196 205 126 176 70 132 143 174 223 256 214 225 188 187 197 207 200 200 208 211 218 222 223 223 219 221 222 222 223 222 223
227 226 189 184 201 183 207 240 190 167 259 229 220 193 190 201 201 204 210 214 219 222 224 224 224 222 223 224 225 227 226 224
323 331 97 181 187 173 124 97 184 157 250 273 177 176 193 184 198 208 213 218 223 224 224 227 228 227 225 226 229 229 227 226
223 217 161 185 186 195 154 139 168 210 197 245 215 186 205 205 199 208 213 219 223 223 230 232 234 231 229 231 232 232 230 226
225 215 189 218 208 203 172 177 171 211 191 212 205 200 205 207 208 207 211 217 221 226 230 233 235 235 236 236 235 235 233 227
228 210 197 230 246 210 228 160 125 141 217 216 211 184 159 202 202 207 207 215 218 223 229 233 238 241 242 241 240 239 236 230
224 181 170 219 222 195 157 59 143 148 219 167 164 196 201 211 210 210 209 212 216 220 227 236 245 246 244 245 241 242 243 228
209 114 202 236 308 142 114 114 84 319 260 182 201 205 212 208 200 202 204 209 213 219 226 246 255 253 252 248 245 246 244 231
148 166 182 357 360 288 137 343 23 5 314 319 217 159 163 208 201 192 182 181 189 188 222 266 266 265 260 252 246 247 242 229
158 140 183 217 328 348 297 60 20 59 57 81 90 163 282 174 176 177 178 175 168 181 243 259 276 277 262 254 250 250 248 238
348 104 172 11 326 320 74 236 26 101 103 87 83 106 68 129 160 162 158 170 189 285 272 289 287 296 278 259 256 259 249 241
358 73 55 350 357 96 205 84 91 82 84 87 82 66 58 63 75 66 28 4 352 318 286 271 286 277 265 260 258 252 245 234
202 178 279 342 70 95 96 89 79 76 71 67 62 52 41 25 18 17 10 353 313 305 314 294 264 256 253 252 249 238 228 223
71 345 309 58 81 81 80 74 65 59 62 61 60 45 17 11 354 353 341 319 327 319 300 300 272 241 237 231 222 222 212 211
101 168 96 56 74 81 81 79 72 57 39 38 6 342 319 313 309 298 302 316 310 308 302 272 237 221 206 192 185 168 192 192
182 140 106 51 69 82 78 79 81 71 58 58 60 56 50 353 299 295 298 293 317 331 321 226 193 182 167 174 177 165 158 146
128 101 96 94 90 85 86 72 64 73 65 53 50 39 21 21 21 347 313 288 293 309 202 182 181 188 192 184 178 177 203 251
Wind_Speed_850mb
13 13 21 11 9 18 12 2 7 8 12 15 14 22 42 57 59 72 85 92 100 102 99 96 87 86 83 84 80 77 69 60
16 12 12 25 14 4 3 12 11 8 8 11 15 16 22 26 52 74 79 83 87 96 102 102 98 89 86 87 87 83 77 69
11 15 20 4 5 7 9 8 14 9 13 16 16 19 34 41 77 67 78 85 93 100 101 108 107 100 92 93 92 88 84 77
24 11 7 15 22 20 15 11 2 9 14 11 18 17 32 39 54 74 82 84 91 97 102 109 115 110 104 101 98 96 89 83
14 8 2 10 13 11 8 8 16 14 12 2 7 12 40 43 56 72 82 80 90 94 100 106 114 117 114 110 105 101 95 86
28 18 11 11 12 14 16 11 12 13 11 7 13 17 20 45 64 80 85 86 90 91 99 104 109 114 113 113 110 106 100 93
41 30 13 12 11 15 15 18 18 16 20 19 24 26 39 68 65 70 75 79 86 96 100 105 104 103 104 107 112 112 107 99
15 24 27 21 29 25 28 13 8 15 14 17 40 15 17 56 64 69 69 74 76 75 81 87 96 100 100 98 105 112 113 106
33 11 14 10 17 32 13 1 14 12 21 13 9 16 39 62 75 81 77 72 68 66 66 68 75 84 90 91 94 103 107 108
25 11 14 10 8 26 21 9 5 7 10 14 23 76 78 73 90 82 68 55 47 41 34 38 47 67 77 82 90 94 99 100
11 11 5 7 7 7 16 9 6 2 10 4 13 24 3 50 57 58 52 43 33 22 12 18 29 37 55 72 80 86 92 94
6 15 11 5 12 33 21 3 13 11 11 8 7 15 5 23 39 39 32 30 25 11 17 20 24 30 50 67 77 81 86 82
6 9 5 9 28 22 15 10 19 24 29 46 17 14 36 16 22 22 24 24 14 12 17 21 23 26 45 56 62 68 73 70
4 8 5 39 10 11 7 20 24 48 52 57 49 50 48 44 34 24 18 18 19 25 33 35 35 39 47 49 47 52 57 62
4 7 8 19 36 43 47 61 61 72 60 60 62 55 47 44 40 35 28 23 24 40 52 57 57 54 48 44 40 41 50 56
7 9 13 27 49 54 55 58 51 46 42 41 40 37 40 35 41 40 37 39 45 52 60 54 58 51 44 35 32 37 41 51
12 7 11 48 48 52 51 44 38 34 32 32 20 15 24 35 56 62 50 47 40 39 45 36 42 40 34 38 41 30 22 17
10 20 43 18 39 44 57 47 45 34 40 44 40 42 19 11 19 24 17 24 30 23 23 28 36 38 38 31 35 33 42 46
24 63 63 55 53 59 58 50 43 41 34 31 35 28 28 29 33 22 26 15 21 21 13 36 35 21 23 28 29 47 37 38
Wind_Direction_850mb
212 189 165 208 161 197 140 357 92 216 275 328 321 220 201 202 197 205 205 209 211 212 214 210 211 211 210 212 216 217 218 219
235 177 231 203 167 102 1 168 232 238 235 217 219 205 203 194 200 207 205 206 209 213 217 217 218 218 217 218 219 219 220 222
158 196 205 126 176 70 132 143 174 223 256 214 225 188 187 197 207 200 200 208 211 218 222 223 223 219 221 222 222 223 222 223
227 226 189 184 201 183 207 240 190 167 259 229 220 193 190 201 201 204 210 214 219 222 224 224 224 222 223 224 225 227 226 224
323 331 97 181 187 173 124 97 184 157 250 273 177 176 193 184 198 208 213 218 223 224 224 227 228 227 225 226 229 229 227 226
223 217 161 185 186 195 154 139 168 210 197 245 215 186 205 205 199 208 213 219 223 223 230 232 234 231 229 231 232 232 230 226
225 215 189 218 208 203 172 177 171 211 191 212 205 200 205 207 208 207 211 217 221 226 230 233 235 235 236 236 235 235 233 227
228 210 197 230 246 210 228 160 125 141 217 216 211 184 159 202 202 207 207 215 218 223 229 233 238 241 242 241 240 239 236 230
224 181 170 219 222 195 157 59 143 148 219 167 164 196 201 211 210 210 209 212 216 220 227 236 245 246 244 245 241 242 243 228
209 114 202 236 308 142 114 114 84 319 260 182 201 205 212 208 200 202 204 209 213 219 226 246 255 253 252 248 245 246 244 231
148 166 182 357 360 288 137 343 23 5 314 319 217 159 163 208 201 192 182 181 189 188 222 266 266 265 260 252 246 247 242 229
158 140 183 217 328 348 297 60 20 59 57 81 90 163 282 174 176 177 178 175 168 181 243 259 276 277 262 254 250 250 248 238
348 104 172 11 326 320 74 236 26 101 103 87 83 106 68 129 160 162 158 170 189 285 272 289 287 296 278 259 256 259 249 241
358 73 55 350 357 96 205 84 91 82 84 87 82 66 58 63 75 66 28 4 352 318 286 271 286 277 265 260 258 252 245 234
202 178 279 342 70 95 96 89 79 76 71 67 62 52 41 25 18 17 10 353 313 305 314 294 264 256 253 252 249 238 228 223
71 345 309 58 81 81 80 74 65 59 62 61 60 45 17 11 354 353 341 319 327 319 300 300 272 241 237 231 222 222 212 211
101 168 96 56 74 81 81 79 72 57 39 38 6 342 319 313 309 298 302 316 310 308 302 272 237 221 206 192 185 168 192 192
182 140 106 51 69 82 78 79 81 71 58 58 60 56 50 353 299 295 298 293 317 331 321 226 193 182 167 174 177 165 158 146
128 101 96 94 90 85 86 72 64 73 65 53 50 39 21 21 21 347 313 288 293 309 202 182 181 188 192 184 178 177 203 251